Weather History for Novato, CA

Change the Weather History Date:

Tuesday, June 11, 2013

  Actual Average (KAPC) Record (KAPC)
Temperature  
Mean Temperature 65 °F 64 °F  
Max Temperature 77 °F 78 °F 94 °F (2008)
Min Temperature 53 °F 49 °F 43 °F (2000)
Degree Days  
Heating Degree Days 0    
Month to date heating degree days  
Since 1 June heating degree days  
Since 1 July heating degree days  
Cooling Degree Days 0    
Month to date cooling degree days  
Year to date cooling degree days  
Since 1 June cooling degree days  
Growing Degree Days 15 (Base 50)    
Moisture  
Dew Point 52 °F    
Average Humidity 58    
Maximum Humidity 94    
Minimum Humidity 43    
Precipitation  
Precipitation 0.00 in - 0.01 in (1969)
Month to date precipitation  
Year to date precipitation  
Since 1 July precipitation  
Sea Level Pressure  
Sea Level Pressure 29.93 in    
Wind  
Wind Speed 5 mph (SSW)    
Max Wind Speed 13 mph    
Max Gust Speed 21 mph    
Visibility 10 miles    
Events      
T = Trace of Precipitation, MM = Missing Value Source: NWS Daily Summary

Daily Weather History Graph

Daily Weather History Graph

Search for Another Location

Airport:

Trip Planner

Search our weather history database for the weather conditions in past years. The results will help you decide how hot, cold, wet, or windy it might be!

Date:

Astronomy

Jun. 11, 2013 Rise Set
Actual Time 5:46 AM PDT 8:33 PM PDT
Civil Twilight 5:15 AM PDT 9:04 PM PDT
Nautical Twilight 4:35 AM PDT 9:44 PM PDT
Astronomical Twilight 3:51 AM PDT 10:29 PM PDT
Moon 8:32 AM PDT (6/11) 10:41 PM PDT (6/11)
Length of Visible Light 15h 49m
Length of Day
14h 46m
Waxing Crescent, 9% of the Moon is Illuminated
Jun 11
Waxing Crescent
Jun 16
First Quarter
Jun 23
Full
Jun 29
Last Quarter
Jul 8
New

Hourly Weather History & Observations

Time (PDT) Temp. Dew Point Humidity Pressure Visibility Wind Dir Wind Speed Gust Speed Precip Events Conditions
12:15 AM 55.4 °F 53.6 °F 94% 29.97 in 10.0 mi Calm Calm - N/A   Overcast
12:35 AM 57.2 °F 53.6 °F 88% 29.96 in 10.0 mi Calm Calm - N/A   Overcast
9:15 AM 60.8 °F 53.6 °F 77% 30.00 in 10.0 mi SSW 5.8 mph - N/A   Overcast
10:55 AM 64.4 °F 53.6 °F 68% 29.99 in 10.0 mi East 3.5 mph - N/A   Overcast
11:15 AM 66.2 °F 53.6 °F 64% 29.99 in 10.0 mi South 5.8 mph - N/A   Mostly Cloudy
11:35 AM 66.2 °F 53.6 °F 64% 29.99 in 10.0 mi South 5.8 mph - N/A   Scattered Clouds
11:55 AM 68.0 °F 53.6 °F 60% 29.99 in 10.0 mi SSE 3.5 mph - N/A   Partly Cloudy
12:15 PM 68.0 °F 53.6 °F 60% 29.99 in 10.0 mi Calm Calm - N/A   Clear
12:35 PM 69.8 °F 53.6 °F 56% 29.98 in 10.0 mi Calm Calm - N/A   Clear
12:55 PM 71.6 °F 53.6 °F 53% 29.97 in 10.0 mi SSW 6.9 mph - N/A   Clear
1:15 PM 73.4 °F 53.6 °F 50% 29.97 in 10.0 mi SSW 5.8 mph - N/A   Clear
1:35 PM 73.4 °F 53.6 °F 50% 29.96 in 10.0 mi North 3.5 mph - N/A   Clear
1:55 PM 75.2 °F 55.4 °F 50% 29.95 in 10.0 mi SSE 8.1 mph - N/A   Clear
2:15 PM 75.2 °F 55.4 °F 50% 29.95 in 10.0 mi SSE 5.8 mph - N/A   Clear
2:35 PM 77.0 °F 55.4 °F 47% 29.94 in 10.0 mi SSE 5.8 mph - N/A   Clear
2:55 PM 77.0 °F 55.4 °F 47% 29.93 in 10.0 mi NNW 10.4 mph - N/A   Clear
3:15 PM 77.0 °F 55.4 °F 47% 29.93 in 10.0 mi WNW 10.4 mph - N/A   Clear
3:35 PM 77.0 °F 55.4 °F 47% 29.93 in 10.0 mi NW 10.4 mph - N/A   Clear
3:55 PM 77.0 °F 55.4 °F 47% 29.93 in 10.0 mi NW 11.5 mph 20.7 mph N/A   Clear
4:15 PM 77.0 °F 55.4 °F 47% 29.93 in 10.0 mi West 6.9 mph 17.3 mph N/A   Clear
4:35 PM 75.2 °F 53.6 °F 47% 29.92 in 10.0 mi SW 12.7 mph 18.4 mph N/A   Clear
4:55 PM 75.2 °F 53.6 °F 47% 29.92 in 10.0 mi SW 12.7 mph 18.4 mph N/A   Clear
5:15 PM 75.2 °F 53.6 °F 47% 29.92 in 10.0 mi SW 11.5 mph - N/A   Clear
5:35 PM 73.4 °F 53.6 °F 50% 29.91 in 10.0 mi WSW 12.7 mph - N/A   Clear
5:55 PM 73.4 °F 53.6 °F 50% 29.91 in 10.0 mi WSW 11.5 mph - N/A   Clear
6:15 PM 75.2 °F 53.6 °F 47% 29.91 in 10.0 mi WSW 4.6 mph - N/A   Clear
6:35 PM 73.4 °F 51.8 °F 47% 29.90 in 10.0 mi SW 10.4 mph - N/A   Clear
6:55 PM 73.4 °F 50.0 °F 44% 29.90 in 10.0 mi SSW 8.1 mph - N/A   Clear
7:15 PM 71.6 °F 48.2 °F 43% 29.90 in 10.0 mi SW 11.5 mph - N/A   Clear
7:35 PM 69.8 °F 48.2 °F 46% 29.90 in 10.0 mi South 5.8 mph - N/A   Clear
7:55 PM 68.0 °F 48.2 °F 49% 29.90 in 10.0 mi South 4.6 mph - N/A   Clear
8:15 PM 66.2 °F 46.4 °F 49% 29.89 in 10.0 mi Calm Calm - N/A   Clear
8:35 PM 64.4 °F 46.4 °F 52% 29.89 in 10.0 mi Calm Calm - N/A   Clear
8:55 PM 62.6 °F 46.4 °F 55% 29.89 in 10.0 mi East 4.6 mph - N/A   Clear
9:15 PM 60.8 °F 46.4 °F 59% 29.90 in 10.0 mi ENE 4.6 mph - N/A   Unknown
9:35 PM 59.0 °F 48.2 °F 67% 29.90 in 10.0 mi East 3.5 mph - N/A   Unknown
9:55 PM 57.2 °F 46.4 °F 67% 29.91 in 10.0 mi NE 3.5 mph - N/A   Unknown
10:15 PM 57.2 °F 46.4 °F 67% 29.92 in 10.0 mi Calm Calm - N/A   Unknown
10:35 PM 57.2 °F 46.4 °F 67% 29.92 in 10.0 mi Calm Calm - N/A   Unknown
10:55 PM 55.4 °F 48.2 °F 77% 29.92 in 10.0 mi Calm Calm - N/A   Unknown
11:15 PM 53.6 °F 50.0 °F 88% 29.92 in 10.0 mi Calm Calm - N/A   Unknown
11:35 PM 53.6 °F 48.2 °F 82% 29.92 in 10.0 mi Calm Calm - N/A   Unknown
11:55 PM 55.4 °F 48.2 °F 77% 29.92 in 10.0 mi Calm Calm - N/A   Unknown